Regional Weather Roundup
Issued by NWS

Home | Current Version | Previous Version | Text Only | Print | Product List | Glossary On
Versions: 1 2 3 4 5 6 7 8 9 10 11 12 13 14 15 16 17 18 19 20 21 22 23 24 25 26 27
000
ASUS42 KTBW 252218
RWRFL
FLORIDA REGIONAL WEATHER ROUNDUP
NATIONAL WEATHER SERVICE TAMPA BAY RUSKIN FL
600 PM EDT MON SEP 25 2017

NOTE: "FAIR" INDICATES FEW OR NO CLOUDS BELOW 12,000 FEET WITH NO
SIGNIFICANT WEATHER AND/OR OBSTRUCTIONS TO VISIBILITY.

FLZ001>010-012>015-112-114-115-252300-
PANHANDLE FLORIDA

CITY           SKY/WX    TMP DP  RH WIND       PRES   REMARKS
PENSACOLA      SUNNY     84  72  67 SE9       29.86F
PENSACOLA NAS  MOSUNNY   82  72  71 E12       29.86F
MILTON NAS     PTSUNNY   84  71  65 E7        29.86
CRESTVIEW      SUNNY     86  68  54 CALM      29.88F
DUKE FIELD     PTSUNNY   85  68  56 E3        29.86F
VALPARAISO     MOSUNNY   84  70  62 SE9       29.86F
MARY ESTHER    MOSUNNY   83  64  52 SE9       29.85F
PANAMA CITY    RAIN      80  72  76 MISG      29.86R
TYNDALL AFB    CLOUDY    80  71  71 N5        29.87S
APALACHICOLA   SUNNY     83  75  77 SE7       29.86R

STATION/POSITION SKY/WX   TEMP    WIND        PRES    WAVE   SWELL
                          AIR SEA DIR/SP/G            HT/PER HT/PER
                          (F)     (DEG/KT/KT) (MB)    (FT/S) (FT/S)
30.1N   87.6W              80 83  100/ 10/ 14 1010.6F   2/ 5   2/ 5
29.2N   88.2W              81      90/  8/ 10 1010.5
28.8N   86.0W              81 82   70/  6/  8 1010.4F   2/ 5   2/ 5
PANAMA CITY BEAC           83     220/  4/  4 1011.8R
TOWER C                    80     100/  7/  8 1011.7F
28.5N   84.5W              81 83  110/  4/  6 1010.6R   1/ 4

$$
FLZ011-016>038-118-127-128-134-139-239-252300-
NORTH FLORIDA

CITY           SKY/WX    TMP DP  RH WIND       PRES   REMARKS
MARIANNA       MOSUNNY   87  67  51 N6        29.86S
TALLAHASSEE    PTSUNNY   89  67  47 VRB3      29.86S
PERRY          MOSUNNY   89  67  48 N5        29.85S
LIVE OAK       SUNNY     95  66  38 CALM      29.85F HX  98
CROSS CITY     MOSUNNY   89  68  50 N7        29.88S
LAKE CITY      FAIR      86  68  54 CALM      29.84F
GAINESVILLE    SUNNY     87  67  51 N7        29.86S
WILLISTON      SUNNY     91  70  49 NW6       29.83S HX  97
PALATKA        FAIR      88  68  51 NE8       29.83S
MAYPORT NAS    MOSUNNY   81  70  69 NE13      29.85R
JACKSONVILLE   MOSUNNY   84  71  65 NE10      29.84R
JAX NAS        MOSUNNY   87  70  56 NE8       29.84S
JAX CECIL      MOSUNNY   88  66  48 N8        29.83S
FERNANDINA BEA FAIR      81  68  65 MISG      29.85R
ST AUGUSTINE   SUNNY     81  70  69 NE9       29.86R
PALM COAST     SUNNY     82 N/A N/A NE12G20   29.84S

STATION/POSITION SKY/WX   TEMP    WIND        PRES    WAVE   SWELL
                          AIR SEA DIR/SP/G            HT/PER HT/PER
                          (F)     (DEG/KT/KT) (MB)    (FT/S) (FT/S)
SHELL POINT      NOT AVBL
KEATON BEACH               83     280/  6/  7 1010.4F
CEDAR KEY                  84     280/  5/  7 1010.9F
FERNANDINA                 83 83   40/  6/ 11 1011.7R
30.7N   81.3W                 81                N/A     5/13   3/13
MAYPORT                    80      60/ 12/ 13 1011.3R
31.4N   80.9W              78 81   10/  6/  8 1011.0    4/13   3/13
ST AUGUSTINE               80 83   20/ 13/ 14 1010.8R

$$
FLZ040-043>046-052-053-057-058-063-144-252300-
INTERIOR CENTRAL FLORIDA

CITY           SKY/WX    TMP DP  RH WIND       PRES   REMARKS
OCALA          MOSUNNY   90  68  48 N9        29.83F
THE VILLAGES     N/A     90  70  51 CALM      29.73F HX  95
LEESBURG       SUNNY     91  69  48 NW6       29.83S HX  96
SANFORD        SUNNY     90  66  45 NW7       29.82R
ORLANDO EXEC   SUNNY     89  68  49 W8        29.82S
ORLANDO INTL   MOSUNNY   89  70  53 NW5       29.82S
KISSIMMEE      SUNNY     91  66  43 N8        29.83S
WINTER HAVEN   MOSUNNY   89  68  49 N7        29.83S
LAKELAND       MOSUNNY   90  70  51 N6        29.83S HX  95
SEBRING        FAIR      91  69  47 N6        29.82S HX  96
OKEECHOBEE     SUNNY     90  72  55 N6        29.82R HX  96

$$
FLZ041-047-054-059-064-141-147-252300-
EAST CENTRAL FLORIDA

CITY           SKY/WX    TMP DP  RH WIND       PRES   REMARKS
ORMOND BEACH   SUNNY     81  70  69 NE12      29.84S
DAYTONA BEACH  MOSUNNY   84  70  62 NE14      29.84R
DELAND         MOSUNNY   84  75  74 NE8       29.83R
NEW SMYRNA BEA MOSUNNY   82  72  69 N12       29.84S
JFK SPACE CTR  SUNNY     83  76  79 NE9       29.82S
TITUSVILLE     MOSUNNY   88  75  66 NE12      29.83S HX  97
CAPE CANAVERAL SUNNY     84  74  72 N10       29.81S
PATRICK AFB    SUNNY     83  76  77 N15       29.82R
MELBOURNE      MOSUNNY   86  74  67 NE9       29.82S
VERO BEACH     SUNNY     85  76  74 NE8       29.82S
FT PIERCE      SUNNY     85  76  74 NE5       29.82R
STUART         MOSUNNY   86  77  74 E7        29.84R HX  97

STATION/POSITION SKY/WX   TEMP    WIND        PRES    WAVE   SWELL
                          AIR SEA DIR/SP/G            HT/PER HT/PER
                          (F)     (DEG/KT/KT) (MB)    (FT/S) (FT/S)
28.5N   80.2W              82 84  350/ 12/ 16 1010.9F   8/10   7/10
28.9N   78.5W                     330/ 16/ 19 1008.9F  10/12  10/12
TRIDENT PIER               84 83   10/  7/ 14 1011.5R
28.4N   80.5W                 83                N/A     4/12   2/12
27.5N   80.2W                 83                N/A     7/13   5/13

$$
FLZ050-056-061-142-242-148-248-149-249-151-251-155-255-
160-260-252300-
WEST CENTRAL FLORIDA

CITY           SKY/WX    TMP DP  RH WIND       PRES   REMARKS
CRYSTAL RIVER  FAIR      86  72  62 W6        29.84S
INVERNESS      CLOUDY    86  73  66 NW3       29.84S
BROOKSVILLE    SUNNY     88  65  46 NW12      29.84S
CLEARWATER AIR FAIR      82  72  69 NW8       29.83F
ST PETE CLEARW CLOUDY    88  71  57 NW8       29.83F
TAMPA INTL     PTSUNNY   88  70  55 W9        29.83S
TAMPA EXEC     MOSUNNY   86  73  66 CALM      29.83S
PLANT CITY     CLOUDY    88  72  58 N5        29.84F
MACDILL AFB    MOSUNNY   86  76  72 W6        29.83S HX  96
PETER O KNIGHT CLOUDY    84  72  65 W7        29.83S
ST PETERSBURG  MOSUNNY   87  73  62 NW7       29.81F
SARASOTA       MOSUNNY   81  76  84 NW9       29.82S
VENICE         FAIR      86  77  74 W9        29.84S HX  97

STATION/POSITION SKY/WX   TEMP    WIND        PRES    WAVE   SWELL
                          AIR SEA DIR/SP/G            HT/PER HT/PER
                          (F)     (DEG/KT/KT) (MB)    (FT/S) (FT/S)
27.3N   84.2W                 86                N/A     1/ 4
CLEARWATER BEACH           83 85  330/  9/ 11 1010.5F
MIDDLE TAMPA BAY           83     290/  9/ 10 1010.4S
VENICE                     84 86  290/  7/  8 1010.3F

$$
FLZ066-069-070-075>078-162-262-165-265-252300-
SOUTHWEST FLORIDA AND KEYS

CITY           SKY/WX    TMP DP  RH WIND       PRES   REMARKS
PUNTA GORDA    MOSUNNY   87  76  69 W9        29.84R HX  97
FT MYERS       MOSUNNY   87  78  74 W10       29.83R HX 100
SOUTHWEST INTL LGT RAIN  86  75  69 SW10      29.83R HX  95
NAPLES         MOSUNNY   87  74  64 W12       29.84R HX  95
IMMOKALEE      FAIR      90  73  58 SW3       29.84R HX  98
MARATHON       PTSUNNY   87  74  64 S7        29.86R HX  95
KEY WEST NAS   CLOUDY    87  79  76 SE10      29.87R THUNDER HX 101
KEY WEST INTL  CLOUDY    86  76  71 S10       29.86R THUNDER HX  96

STATION/POSITION SKY/WX   TEMP    WIND        PRES    WAVE   SWELL
                          AIR SEA DIR/SP/G            HT/PER HT/PER
                          (F)     (DEG/KT/KT) (MB)    (FT/S) (FT/S)
NAPLES                        89  270/  8/ 10 1010.5R
DRY TORTUGAS     NOT AVBL
SAND KEY                   83                 1011.8R
MOLASSES REEF              85 85  190/  6/  6 1011.3R

$$
FLZ067-068-071>074-168-172>174-252300-
SOUTHEAST FLORIDA

CITY           SKY/WX    TMP DP  RH WIND       PRES   REMARKS
W PALM BEACH   PTSUNNY   84  77  79 SE9       29.83R
BOCA RATON     MOSUNNY  N/A N/A N/A VRB5      29.83R
FT LAUDER-EXEC CLOUDY    86  76  71 SE10      29.83R HX  96
FT LAUDERDALE  CLOUDY    86  78  77 S8        29.82R HX  98
POMPANO BEACH  CLOUDY    85  76  74 SE8       29.83R
PEMBROKE PINES CLOUDY    87  75  67 S8        29.84R HX  96
OPA LOCKA      CLOUDY    86  76  71 S9        29.84R HX  96
MIAMI          CLOUDY    86  76  71 S9        29.84R HX  96
WEST KENDALL   CLOUDY    83  71  67 S8        29.84R
HOMESTEAD      CLOUDY    81  77  89 S5        29.84R

STATION/POSITION SKY/WX   TEMP    WIND        PRES    WAVE   SWELL
                          AIR SEA DIR/SP/G            HT/PER HT/PER
                          (F)     (DEG/KT/KT) (MB)    (FT/S) (FT/S)
PORT EVERGLADES            85     160/  8/ 12 1010.2R
VIRGINIA KEY               85 87  180/ 12/ 13 1010.0R
LAKE WORTH                 83 86  120/  6/  7 1011.3R

$$





USA.gov is the U.S. government's official web portal to all federal, state and local government web resources and services.